カタログに戻る

STARLINK-36427

運用中通信VLEO
NORAD 67333·PAYLOAD·🇺🇸 United States

打ち上げ Jan 4, 2026 から Cape Canaveral Space Force Station

Loading…

次のパス (今後24時間)

TLE

最新Source: CelesTrak SupGP

元期: Sep 15, 2026, 03:27 UTC

1 67333C 26002AE  26258.14423611  .00051216  00000+0  18543-2 0  2582
2 67333  43.0030 335.3828 0001875 269.2171  59.1674 15.27564615    10

AllMySatでSTARLINK-36427をリアルタイム追跡

Download on the App Store